SCP
0 0 0 0 0 0 0 0 0 0 0 0 0 0 0 0 0 0 0 0 0 0 0 0 0 0 0 0 0 0 0 0 0 0 0 0 0 0 0 0 0 0 0 0
0 0 0 0 0 0 0 0 0 0 0 0 0 0 -0 0 0 0 0 0 0 0 0 0 0 0 0 0 0 0 0 0 0 0 0 0 0 0 0 0 0 0 0 0
0 0 0 0 0 0 0 0 0 0 0 0 0 0 0 0 0 0 0 0 0 0 0 0 0 0 0 0 0 0 0 0 0 0 0 0 0 0 0 0 0 0 0 0
0 0 0 0 0 0 0 0 0 0 0 0 0 -0 -0 0 0 0 0 0 0 0 0 0 0 0 0 0 0 0 0 0 0 0 0 0 0 0 0 0 0 0 0 0
0 0 0 0 0 0 0 0 0 0 0 0 0 0 -0 -0 0 0 0 0 0 0 0 0 0 0 0 0 0 0 0 0 0 0 0 0 0 0 0 0 0 0 0 0
0 0 0 0 0 0 0 0 0 0 0 0 0 0 -0 0 0 0 0 0 0 0 0 0 0 0 0 0 0 0 0 0 0 0 0 0 0 0 0 0 0 0 0 0
0 0 0 0 0 0 0 0 0 0 0 0 0 0 0 0 0 0 0 0 0 0 0 0 0 0 0 0 0 0 0 0 0 0 0 0 0 0 0 0 0 0 0 0
0 0 0 0 0 0 0 0 0 0 0 0 0 0 0 -0 0 0 0 0 0 0 0 0 0 0 0 0 0 0 0 0 0 0 0 0 0 0 0 0 0 0 0 0
0 0 0 0 0 0 0 0 0 0 0 0 0 0 0 0 0 0 0 0 0 0 0 0 0 0 0 0 0 0 0 0 0 0 0 0 0 0 0 0 0 0 0 0
-0 -0 -0 -0 0 0 0 0 0 0 0 0 0 0 0 0 0 0 0 0 0 0 0 0 0 0 0 0 0 0 0 0 0 0 0 0 0 0 0 0 0 0 0 0
-0 -0 -0 0 0 0 0 0 0 0 0 0 0 0 0 0 0 0 0 0 0 0 0 0 0 0 0 0 0 0 0 0 0 0 0 0 0 0 0 0 0 0 0 0
0 0 0 -0 0 0 0 0 0 0 0 0 0 0 0 0 0 0 0 -0 0 0 0 0 0 0 0 0 0 0 0 0 0 0 0 0 0 0 0 0 0 0 0 0
0 0 0 0 0 0 0 0 0 -0 0 0 0 0 0 0 0 0 -0 0 0 0 0 0 0 0 0 0 0 0 0 0 0 0 0 0 0 0 0 0 0 0 0 0
0 0 0 0 0 0 0 0 0 0 -0 0 0 0 0 -0 0 0 0 0 0 0 0 0 0 0 0 0 0 0 0 0 0 0 0 0 0 0 0 0 0 0 0 0
0 0 0 0 0 0 0 0 0 0 0 0 0 0 0 0 0 0 0 -0 0 0 0 0 0 0 0 -0 0 0 0 0 0 0 0 0 0 0 0 0 0 0 0 0
0 0 0 0 0 0 0 0 0 0 0 0 0 0 0 0 0 0 0 0 -0 0 0 0 0 0 0 -0 -0 0 0 0 0 0 0 0 0 0 0 0 0 0 0 0
0 0 0 0 0 0 0 0 0 0 0 0 0 0 0 0 0 -0 0 0 0 -0 -0 0 0 0 0 -0 -0 0 0 0 0 0 0 0 0 0 0 0 0 0 0 0
0 0 0 0 0 0 -0 0 0 0 0 0 0 0 0 0 0 0 0 0 0 0 0 0 0 0 0 0 0 0 0 0 0 0 0 0 0 0 0 0 0 0 0 0
0 0 0 0 0 0 -0 0 0 0 -0 0 0 0 -0 -0 0 0 0 0 0 0 0 0 -0 -0 0 0 0 0 0 0 0 0 0 0 0 0 0 0 0 0 0 0
0 0 0 0 0 0 0 0 0 0 0 -0 -0 0 -0 0 0 0 0 0 0 0 0 0 0 0 0 0 0 0 0 0 0 0 0 0 0 0 0 0 0 0 0 0
0 0 0 0 0 0 0 0 0 0 0 0 -0 -0 -0 -0 0 0 0 0 0 0 0 0 0 0 0 0 0 0 0 0 0 0 0 0 0 0 0 0 0 0 0 0
0 0 0 0 0 0 0 0 0 0 0 -0 -0 -0 -0 -0 -0 -0 -0 0 0 0 0 0 -0 0 0 0 0 0 0 0 0 0 0 0 0 0 0 0 0 0 0 0
0 0 0 0 0 0 0 0 0 0 0 -0 -0 -0 -0 -0 -0 -0 -0 0 0 0 0 0 -0 -0 0 0 0 0 0 0 0 0 0 0 0 0 0 0 0 0 0 0
0 0 0 0 0 0 0 0 0 0 0 0 -0 -0 -0 -0 -0 -0 -0 -0 0 0 0 0 0 0 0 0 0 0 0 0 0 0 0 0 0 0 0 0 0 0 0 0
0 0 0 0 0 0 0 0 0 0 0 0 -0 -0 -0 -0 -0 -0 -0 -0 0 0 0 0 0 0 0 0 0 0 0 0 0 0 0 0 0 0 0 0 0 0 0 0
0 0 0 0 0 0 0 0 0 0 0 0 -0 -0 -0 -0 -0 -0 -0 -0 0 0 0 0 0 0 0 0 0 0 0 0 0 0 0 0 0 0 0 0 0 0 0 0
Wind_Speed_500mb
22 10 23 34 38 27 15 19 20 10 17 11 23 25 18 24 30 27 43 52 57 56 41 50 69 81 86 89 87 78 81 83 90 98 95 90 93 92 86 82 74 62 55 54
6 36 27 15 27 28 28 31 37 28 24 20 22 31 17 16 20 44 52 60 63 57 63 57 52 68 89 97 93 84 83 84 93 100 102 96 93 90 95 88 80 71 65 59
28 16 28 27 30 31 33 35 25 27 12 12 15 43 33 19 26 52 62 73 79 79 78 63 69 71 73 104 101 92 84 86 91 96 104 97 86 91 96 92 91 87 76 68
28 31 33 24 31 26 32 15 23 27 19 17 9 25 18 8 21 26 51 67 78 83 87 86 75 77 68 94 104 97 90 87 90 96 103 105 106 109 108 108 103 95 86 78
14 12 14 32 38 17 20 10 19 15 8 3 16 10 10 13 23 33 30 59 77 81 82 91 96 92 73 79 94 101 98 92 88 97 103 104 107 110 96 102 110 105 96 89
39 48 19 1 17 11 12 12 4 5 4 11 44 17 34 22 27 27 39 49 49 57 65 70 78 84 89 70 88 104 106 99 94 97 102 104 111 110 106 105 111 113 106 98
23 48 47 31 27 33 15 5 10 7 10 30 19 16 48 14 16 12 19 41 45 47 25 24 30 66 90 86 82 97 110 109 102 98 103 105 109 107 106 110 111 115 115 111
13 9 16 25 19 28 31 23 17 17 15 27 21 21 33 29 47 70 67 60 60 49 43 33 36 39 52 86 81 94 102 111 107 101 102 105 106 103 101 105 106 109 116 114
4 8 19 14 12 8 8 28 28 24 31 18 10 25 31 22 26 23 32 47 54 67 64 60 59 50 45 60 72 74 99 109 111 107 101 106 104 105 106 106 106 105 106 109
11 8 8 11 14 11 11 9 22 19 28 41 15 23 25 11 18 16 16 25 62 65 72 67 62 52 48 54 54 64 85 94 103 108 104 102 106 107 110 105 102 105 107 104
11 8 8 10 5 21 14 10 10 12 22 24 29 23 31 24 29 37 31 36 64 57 33 35 40 39 42 43 50 60 71 92 102 104 103 101 104 101 106 108 104 98 95 102
16 5 6 17 31 26 27 10 2 10 10 17 32 33 16 23 32 21 44 52 39 38 31 22 25 30 38 44 47 52 59 73 86 95 98 98 96 95 98 104 110 103 99 95
10 4 4 16 12 6 8 9 11 6 16 18 14 15 25 12 17 44 26 46 53 24 10 9 3 6 8 9 25 51 57 60 71 84 90 92 92 94 93 98 100 106 104 98
26 9 13 15 17 6 12 22 20 11 12 28 22 36 54 29 29 40 65 61 60 47 52 52 37 26 15 22 24 22 44 57 58 65 75 85 88 90 92 91 96 100 103 102
14 14 15 25 31 29 25 34 34 25 34 29 42 37 58 44 34 33 77 68 65 66 71 64 52 38 25 23 25 26 25 35 53 63 66 75 80 82 84 86 89 93 99 101
15 14 14 19 26 21 30 31 40 45 36 36 40 44 52 51 57 43 51 81 58 71 70 46 39 38 33 24 23 24 24 23 31 47 56 66 75 76 80 84 86 88 91 94
13 11 7 23 8 1 14 45 32 35 36 32 34 38 50 47 43 40 43 61 78 68 71 58 56 51 43 36 38 42 46 41 41 42 47 53 65 74 76 82 82 85 88 91
9 11 8 11 7 4 36 18 24 32 40 39 38 37 50 51 60 66 67 67 83 87 80 79 66 59 53 51 54 54 51 50 50 51 48 49 54 65 72 77 82 82 86 92
28 16 8 12 11 20 37 36 9 11 36 36 36 41 44 64 69 56 73 75 79 93 97 72 70 64 62 64 62 63 62 57 54 58 57 53 50 56 64 73 82 82 84 89
30 27 18 6 12 18 47 37 21 10 21 55 20 23 29 45 28 24 63 77 76 76 87 90 80 87 90 86 76 69 66 66 66 63 60 54 52 55 60 66 75 83 81 85
9 14 31 27 24 15 27 27 6 10 38 23 41 39 33 24 31 79 84 77 87 66 60 75 68 68 67 59 66 66 67 73 72 63 60 58 56 56 55 59 66 72 78 81
15 14 13 12 15 29 23 25 21 23 32 45 45 48 43 58 59 61 60 64 70 73 56 61 74 77 68 60 65 66 68 63 61 61 63 61 58 57 57 56 60 65 70 75
11 18 14 20 13 13 28 28 42 39 39 69 58 52 48 57 52 66 59 79 82 78 75 68 58 59 58 54 58 65 66 58 58 59 62 60 57 56 55 56 60 65 68 74
10 8 14 27 32 31 52 75 78 47 55 83 85 55 62 60 55 74 70 69 81 85 84 75 53 46 45 46 51 53 48 47 52 55 56 57 58 55 56 57 58 64 69 75
11 9 17 14 26 33 54 77 84 60 56 59 85 77 72 68 69 72 79 82 93 86 83 66 52 43 37 37 46 50 52 54 53 50 54 57 54 53 55 56 56 61 65 69
9 24 13 24 37 38 52 80 66 58 59 70 77 85 97 77 66 67 91 97 90 86 71 62 50 42 32 32 36 40 43 45 47 51 57 56 52 52 54 55 54 53 57 62
Wind_Direction_500mb
194 201 211 203 204 229 241 256 256 257 283 302 279 277 263 264 254 253 260 266 270 266 264 242 236 231 230 223 221 224 224 223 217 217 216 218 217 221 221 226 226 226 231 222
182 233 225 232 227 236 239 247 256 277 274 271 282 277 270 245 250 264 262 264 271 276 266 256 247 239 227 222 220 222 226 224 219 219 220 222 220 224 224 224 228 227 232 228
227 215 210 217 230 236 238 240 255 258 273 274 314 288 281 253 248 263 260 260 261 261 260 255 246 247 236 220 220 222 227 227 223 219 218 219 221 219 220 223 228 228 230 232
246 245 248 245 234 226 251 257 270 268 260 263 166 279 238 250 248 246 252 252 251 250 250 248 243 246 230 225 224 225 228 228 226 220 216 214 216 217 223 227 225 229 229 230
231 338 237 228 239 248 265 277 252 249 231 235 242 261 287 235 259 254 257 249 254 254 252 250 247 245 244 228 226 227 227 228 228 222 219 214 216 220 223 220 227 229 230 229
258 273 287 344 320 318 347 257 296 281 175 245 241 210 270 236 250 239 247 252 261 266 261 254 249 242 246 242 231 228 224 228 229 228 224 220 219 222 217 219 225 229 229 228
279 248 257 265 289 286 293 267 240 251 206 243 155 203 246 247 219 220 257 266 275 295 277 276 262 252 243 239 233 230 225 225 228 230 230 223 223 222 219 222 229 228 230 229
348 11 358 356 243 251 231 215 216 214 224 260 159 219 237 220 234 261 269 269 290 289 285 274 277 276 252 236 234 234 232 227 229 231 232 229 224 219 220 223 229 233 234 236
300 277 326 322 304 310 260 227 235 265 271 280 229 273 281 263 262 258 261 269 270 278 276 274 279 274 258 239 234 236 234 231 231 233 233 232 226 222 223 223 229 237 236 236
208 261 264 306 303 296 232 293 238 225 246 240 235 248 252 298 276 299 295 266 268 279 280 276 274 268 252 255 254 248 241 236 235 233 234 233 232 227 224 223 225 233 239 239
158 179 295 345 20 304 314 323 249 232 229 245 255 252 247 252 256 278 290 311 307 285 280 265 263 254 247 241 242 244 241 234 232 232 233 233 233 228 226 224 224 229 232 240
204 197 241 235 272 253 237 285 292 335 344 270 242 252 255 316 304 286 293 297 299 256 259 261 250 249 248 245 240 237 240 236 234 236 235 236 235 231 228 227 227 228 231 233
193 240 10 320 323 81 117 185 207 224 277 292 307 261 274 302 284 291 309 310 279 240 217 224 196 124 86 352 257 239 238 240 239 237 237 238 236 234 228 228 227 229 231 232
155 193 172 225 250 336 303 291 302 296 275 298 288 293 293 306 314 316 309 312 320 284 299 268 245 248 261 326 309 265 237 237 237 239 239 240 240 237 230 229 229 229 230 231
148 209 203 237 256 274 281 291 294 282 270 258 275 273 276 282 283 282 291 292 294 299 288 265 239 235 262 293 300 287 256 235 235 235 237 242 244 240 233 229 231 231 232 232
185 237 196 256 248 273 283 280 275 271 266 256 257 266 275 278 282 276 261 281 280 281 286 282 258 255 259 276 285 275 267 268 252 240 238 238 241 240 233 229 232 231 231 232
182 176 125 257 133 312 311 243 260 267 269 270 274 272 282 286 276 273 269 263 273 271 276 276 282 272 274 280 280 274 275 271 267 254 242 237 236 238 236 228 229 231 231 231
211 159 162 257 67 240 260 268 240 250 265 272 268 271 269 273 286 284 285 274 265 265 262 270 275 270 277 281 282 286 278 265 264 255 248 239 236 236 236 230 228 230 230 230
218 205 210 216 198 269 292 271 188 251 281 283 265 275 286 294 296 301 283 268 261 259 262 261 276 277 276 276 279 279 271 266 263 255 249 244 240 237 235 232 227 228 230 230
208 209 202 173 191 211 254 274 207 240 286 270 307 325 345 342 321 309 317 315 308 275 266 262 268 267 267 268 278 270 261 261 262 256 250 248 245 242 238 235 229 227 229 231
157 202 224 227 235 256 256 271 123 233 255 354 323 323 312 295 287 294 300 306 317 282 280 266 273 275 271 267 265 262 259 255 258 260 249 247 247 245 241 237 233 231 231 230
165 162 201 222 233 250 240 267 223 247 315 305 299 302 304 299 292 299 306 312 313 317 316 304 280 270 267 265 256 255 254 256 253 250 246 244 244 242 238 235 234 231 231 231
226 201 205 186 210 227 227 230 254 278 286 289 288 294 295 299 300 304 308 308 307 315 314 310 290 274 264 253 246 249 255 249 245 243 243 241 238 236 236 233 229 226 225 226
251 213 228 250 249 256 266 274 277 276 276 285 289 283 298 295 293 294 299 302 304 310 311 309 295 279 270 252 247 247 242 244 246 245 239 233 229 228 229 230 229 226 223 221
209 161 221 254 258 268 266 265 271 278 278 285 287 290 290 290 291 290 292 302 305 299 301 303 287 285 278 267 252 246 242 239 240 236 229 227 229 226 223 227 227 225 227 227
179 240 237 251 256 251 263 270 281 284 282 279 283 288 289 285 279 283 292 298 298 294 299 295 278 284 284 274 263 248 240 234 229 226 222 224 223 219 220 220 218 223 229 227
Wind_Speed_850mb
22 10 23 34 38 27 15 19 20 10 17 11 23 25 18 24 30 27 43 52 57 56 41 50 69 81 86 89 87 78 81 83 90 98 95 90 93 92 86 82 74 62 55 54
6 36 27 15 27 28 28 31 37 28 24 20 22 31 17 16 20 44 52 60 63 57 63 57 52 68 89 97 93 84 83 84 93 100 102 96 93 90 95 88 80 71 65 59
28 16 28 27 30 31 33 35 25 27 12 12 15 43 33 19 26 52 62 73 79 79 78 63 69 71 73 104 101 92 84 86 91 96 104 97 86 91 96 92 91 87 76 68
28 31 33 24 31 26 32 15 23 27 19 17 9 25 18 8 21 26 51 67 78 83 87 86 75 77 68 94 104 97 90 87 90 96 103 105 106 109 108 108 103 95 86 78
14 12 14 32 38 17 20 10 19 15 8 3 16 10 10 13 23 33 30 59 77 81 82 91 96 92 73 79 94 101 98 92 88 97 103 104 107 110 96 102 110 105 96 89
39 48 19 1 17 11 12 12 4 5 4 11 44 17 34 22 27 27 39 49 49 57 65 70 78 84 89 70 88 104 106 99 94 97 102 104 111 110 106 105 111 113 106 98
23 48 47 31 27 33 15 5 10 7 10 30 19 16 48 14 16 12 19 41 45 47 25 24 30 66 90 86 82 97 110 109 102 98 103 105 109 107 106 110 111 115 115 111
13 9 16 25 19 28 31 23 17 17 15 27 21 21 33 29 47 70 67 60 60 49 43 33 36 39 52 86 81 94 102 111 107 101 102 105 106 103 101 105 106 109 116 114
4 8 19 14 12 8 8 28 28 24 31 18 10 25 31 22 26 23 32 47 54 67 64 60 59 50 45 60 72 74 99 109 111 107 101 106 104 105 106 106 106 105 106 109
11 8 8 11 14 11 11 9 22 19 28 41 15 23 25 11 18 16 16 25 62 65 72 67 62 52 48 54 54 64 85 94 103 108 104 102 106 107 110 105 102 105 107 104
11 8 8 10 5 21 14 10 10 12 22 24 29 23 31 24 29 37 31 36 64 57 33 35 40 39 42 43 50 60 71 92 102 104 103 101 104 101 106 108 104 98 95 102
16 5 6 17 31 26 27 10 2 10 10 17 32 33 16 23 32 21 44 52 39 38 31 22 25 30 38 44 47 52 59 73 86 95 98 98 96 95 98 104 110 103 99 95
10 4 4 16 12 6 8 9 11 6 16 18 14 15 25 12 17 44 26 46 53 24 10 9 3 6 8 9 25 51 57 60 71 84 90 92 92 94 93 98 100 106 104 98
26 9 13 15 17 6 12 22 20 11 12 28 22 36 54 29 29 40 65 61 60 47 52 52 37 26 15 22 24 22 44 57 58 65 75 85 88 90 92 91 96 100 103 102
14 14 15 25 31 29 25 34 34 25 34 29 42 37 58 44 34 33 77 68 65 66 71 64 52 38 25 23 25 26 25 35 53 63 66 75 80 82 84 86 89 93 99 101
15 14 14 19 26 21 30 31 40 45 36 36 40 44 52 51 57 43 51 81 58 71 70 46 39 38 33 24 23 24 24 23 31 47 56 66 75 76 80 84 86 88 91 94
13 11 7 23 8 1 14 45 32 35 36 32 34 38 50 47 43 40 43 61 78 68 71 58 56 51 43 36 38 42 46 41 41 42 47 53 65 74 76 82 82 85 88 91
9 11 8 11 7 4 36 18 24 32 40 39 38 37 50 51 60 66 67 67 83 87 80 79 66 59 53 51 54 54 51 50 50 51 48 49 54 65 72 77 82 82 86 92
28 16 8 12 11 20 37 36 9 11 36 36 36 41 44 64 69 56 73 75 79 93 97 72 70 64 62 64 62 63 62 57 54 58 57 53 50 56 64 73 82 82 84 89
30 27 18 6 12 18 47 37 21 10 21 55 20 23 29 45 28 24 63 77 76 76 87 90 80 87 90 86 76 69 66 66 66 63 60 54 52 55 60 66 75 83 81 85
9 14 31 27 24 15 27 27 6 10 38 23 41 39 33 24 31 79 84 77 87 66 60 75 68 68 67 59 66 66 67 73 72 63 60 58 56 56 55 59 66 72 78 81
15 14 13 12 15 29 23 25 21 23 32 45 45 48 43 58 59 61 60 64 70 73 56 61 74 77 68 60 65 66 68 63 61 61 63 61 58 57 57 56 60 65 70 75
11 18 14 20 13 13 28 28 42 39 39 69 58 52 48 57 52 66 59 79 82 78 75 68 58 59 58 54 58 65 66 58 58 59 62 60 57 56 55 56 60 65 68 74
10 8 14 27 32 31 52 75 78 47 55 83 85 55 62 60 55 74 70 69 81 85 84 75 53 46 45 46 51 53 48 47 52 55 56 57 58 55 56 57 58 64 69 75
11 9 17 14 26 33 54 77 84 60 56 59 85 77 72 68 69 72 79 82 93 86 83 66 52 43 37 37 46 50 52 54 53 50 54 57 54 53 55 56 56 61 65 69
9 24 13 24 37 38 52 80 66 58 59 70 77 85 97 77 66 67 91 97 90 86 71 62 50 42 32 32 36 40 43 45 47 51 57 56 52 52 54 55 54 53 57 62
Wind_Direction_850mb
194 201 211 203 204 229 241 256 256 257 283 302 279 277 263 264 254 253 260 266 270 266 264 242 236 231 230 223 221 224 224 223 217 217 216 218 217 221 221 226 226 226 231 222
182 233 225 232 227 236 239 247 256 277 274 271 282 277 270 245 250 264 262 264 271 276 266 256 247 239 227 222 220 222 226 224 219 219 220 222 220 224 224 224 228 227 232 228
227 215 210 217 230 236 238 240 255 258 273 274 314 288 281 253 248 263 260 260 261 261 260 255 246 247 236 220 220 222 227 227 223 219 218 219 221 219 220 223 228 228 230 232
246 245 248 245 234 226 251 257 270 268 260 263 166 279 238 250 248 246 252 252 251 250 250 248 243 246 230 225 224 225 228 228 226 220 216 214 216 217 223 227 225 229 229 230
231 338 237 228 239 248 265 277 252 249 231 235 242 261 287 235 259 254 257 249 254 254 252 250 247 245 244 228 226 227 227 228 228 222 219 214 216 220 223 220 227 229 230 229
258 273 287 344 320 318 347 257 296 281 175 245 241 210 270 236 250 239 247 252 261 266 261 254 249 242 246 242 231 228 224 228 229 228 224 220 219 222 217 219 225 229 229 228
279 248 257 265 289 286 293 267 240 251 206 243 155 203 246 247 219 220 257 266 275 295 277 276 262 252 243 239 233 230 225 225 228 230 230 223 223 222 219 222 229 228 230 229
348 11 358 356 243 251 231 215 216 214 224 260 159 219 237 220 234 261 269 269 290 289 285 274 277 276 252 236 234 234 232 227 229 231 232 229 224 219 220 223 229 233 234 236
300 277 326 322 304 310 260 227 235 265 271 280 229 273 281 263 262 258 261 269 270 278 276 274 279 274 258 239 234 236 234 231 231 233 233 232 226 222 223 223 229 237 236 236
208 261 264 306 303 296 232 293 238 225 246 240 235 248 252 298 276 299 295 266 268 279 280 276 274 268 252 255 254 248 241 236 235 233 234 233 232 227 224 223 225 233 239 239
158 179 295 345 20 304 314 323 249 232 229 245 255 252 247 252 256 278 290 311 307 285 280 265 263 254 247 241 242 244 241 234 232 232 233 233 233 228 226 224 224 229 232 240
204 197 241 235 272 253 237 285 292 335 344 270 242 252 255 316 304 286 293 297 299 256 259 261 250 249 248 245 240 237 240 236 234 236 235 236 235 231 228 227 227 228 231 233
193 240 10 320 323 81 117 185 207 224 277 292 307 261 274 302 284 291 309 310 279 240 217 224 196 124 86 352 257 239 238 240 239 237 237 238 236 234 228 228 227 229 231 232
155 193 172 225 250 336 303 291 302 296 275 298 288 293 293 306 314 316 309 312 320 284 299 268 245 248 261 326 309 265 237 237 237 239 239 240 240 237 230 229 229 229 230 231
148 209 203 237 256 274 281 291 294 282 270 258 275 273 276 282 283 282 291 292 294 299 288 265 239 235 262 293 300 287 256 235 235 235 237 242 244 240 233 229 231 231 232 232
185 237 196 256 248 273 283 280 275 271 266 256 257 266 275 278 282 276 261 281 280 281 286 282 258 255 259 276 285 275 267 268 252 240 238 238 241 240 233 229 232 231 231 232
182 176 125 257 133 312 311 243 260 267 269 270 274 272 282 286 276 273 269 263 273 271 276 276 282 272 274 280 280 274 275 271 267 254 242 237 236 238 236 228 229 231 231 231
211 159 162 257 67 240 260 268 240 250 265 272 268 271 269 273 286 284 285 274 265 265 262 270 275 270 277 281 282 286 278 265 264 255 248 239 236 236 236 230 228 230 230 230
218 205 210 216 198 269 292 271 188 251 281 283 265 275 286 294 296 301 283 268 261 259 262 261 276 277 276 276 279 279 271 266 263 255 249 244 240 237 235 232 227 228 230 230
208 209 202 173 191 211 254 274 207 240 286 270 307 325 345 342 321 309 317 315 308 275 266 262 268 267 267 268 278 270 261 261 262 256 250 248 245 242 238 235 229 227 229 231
157 202 224 227 235 256 256 271 123 233 255 354 323 323 312 295 287 294 300 306 317 282 280 266 273 275 271 267 265 262 259 255 258 260 249 247 247 245 241 237 233 231 231 230
165 162 201 222 233 250 240 267 223 247 315 305 299 302 304 299 292 299 306 312 313 317 316 304 280 270 267 265 256 255 254 256 253 250 246 244 244 242 238 235 234 231 231 231
226 201 205 186 210 227 227 230 254 278 286 289 288 294 295 299 300 304 308 308 307 315 314 310 290 274 264 253 246 249 255 249 245 243 243 241 238 236 236 233 229 226 225 226
251 213 228 250 249 256 266 274 277 276 276 285 289 283 298 295 293 294 299 302 304 310 311 309 295 279 270 252 247 247 242 244 246 245 239 233 229 228 229 230 229 226 223 221
209 161 221 254 258 268 266 265 271 278 278 285 287 290 290 290 291 290 292 302 305 299 301 303 287 285 278 267 252 246 242 239 240 236 229 227 229 226 223 227 227 225 227 227
179 240 237 251 256 251 263 270 281 284 282 279 283 288 289 285 279 283 292 298 298 294 299 295 278 284 284 274 263 248 240 234 229 226 222 224 223 219 220 220 218 223 229 227